This demonstration page uses our WeatherBlox Daily Observations layout. Learn more.

Left ArrowRight Arrow

Hourly Observations for January 14, 2018

Temp ( °F °C ) Dew Point ( °F °C ) Humidity (%) Winds ( mph kmh ) Pressure ( in mb ) Visibility ( mi km ) Precip ( " mm )
12:15 am 00:15 Clear 7 -14 7 -14 100 100 N N/A 30.71 1040 10 16 N/A
12:35 am 00:35 Clear 7 -14 5 -15 92 92 N N/A 30.71 1040 10 16 N/A
12:55 am 00:55 Clear 5 -15 5 -15 100 100 N N/A 30.71 1040 10 16 N/A
1:15 am 01:15 Clear 5 -15 5 -15 100 100 N N/A 30.71 1040 10 16 N/A
1:35 am 01:35 Clear 5 -15 3 -16 92 92 N N/A 30.71 1040 10 16 N/A
1:55 am 01:55 Clear 3 -16 1 -17 92 92 N N/A 30.74 1041 10 16 N/A
2:15 am 02:15 Clear 3 -16 3 -16 100 100 N N/A 30.74 1041 10 16 N/A
2:35 am 02:35 Clear 3 -16 3 -16 100 100 N N/A 30.74 1041 10 16 N/A
2:55 am 02:55 Clear 3 -16 3 -16 100 100 N N/A 30.74 1041 10 16 N/A
3:15 am 03:15 Clear 3 -16 3 -16 100 100 N N/A 30.74 1041 10 16 N/A
3:35 am 03:35 Clear 3 -16 3 -16 100 100 N N/A 30.74 1041 10 16 N/A
3:55 am 03:55 Clear 3 -16 1 -17 92 92 N N/A 30.74 1041 10 16 N/A
4:15 am 04:15 Clear 3 -16 1 -17 92 92 N N/A 30.74 1041 10 16 N/A
4:35 am 04:35 Clear 3 -16 1 -17 92 92 N N/A 30.74 1041 10 16 N/A
4:55 am 04:55 Clear 3 -16 1 -17 92 92 N N/A 30.74 1041 10 16 N/A
5:15 am 05:15 Clear 1 -17 1 -17 100 100 N N/A 30.74 1041 10 16 N/A
5:35 am 05:35 Clear 1 -17 1 -17 100 100 N N/A 30.74 1041 10 16 N/A
5:55 am 05:55 Clear 1 -17 1 -17 100 100 N N/A 30.74 1041 10 16 N/A
6:15 am 06:15 Clear 1 -17 1 -17 100 100 N N/A 30.74 1041 10 16 N/A
6:35 am 06:35 Clear 1 -17 1 -17 100 100 N N/A 30.74 1041 10 16 N/A
6:55 am 06:55 Clear 1 -17 1 -17 100 100 N N/A 30.77 1042 10 16 N/A
7:15 am 07:15 Clear 1 -17 N/A 92 92 N N/A 30.77 1042 10 16 N/A
7:35 am 07:35 Clear 1 -17 N/A 92 92 N N/A 30.77 1042 10 16 N/A
7:55 am 07:55 Clear N/A N/A 100 100 N N/A 30.77 1042 10 16 N/A
8:15 am 08:15 Sunny 1 -17 N/A 92 92 N N/A 30.77 1042 10 16 N/A
8:35 am 08:35 Sunny 1 -17 1 -17 100 100 N N/A 30.77 1042 10 16 N/A
8:55 am 08:55 Sunny 3 -16 3 -16 100 100 N N/A 30.77 1042 10 16 N/A
9:15 am 09:15 Sunny 7 -14 7 -14 100 100 N N/A 30.74 1041 10 16 N/A
9:35 am 09:35 Sunny 9 -13 9 -13 100 100 N N/A 30.74 1041 10 16 N/A
9:55 am 09:55 Sunny 10 -12 10 -12 100 100 S 3 6 30.74 1041 10 16 N/A
10:15 am 10:15 Sunny 10 -12 10 -12 100 100 SSE 6 9 30.74 1041 10 16 N/A
10:35 am 10:35 Sunny 12 -11 12 -11 100 100 S 5 7 30.74 1041 10 16 N/A
10:55 am 10:55 Sunny 12 -11 12 -11 100 100 S 7 11 30.74 1041 10 16 N/A
11:15 am 11:15 Sunny 12 -11 12 -11 100 100 S 6 9 30.74 1041 10 16 N/A
11:35 am 11:35 Sunny 14 -10 14 -10 100 100 S 7 11 30.74 1041 10 16 N/A
11:55 am 11:55 Sunny 14 -10 12 -11 92 92 S 8 13 30.74 1041 10 16 N/A
12:15 pm 12:15 Sunny 16 -9 10 -12 79 79 SSW 7 11 30.71 1040 10 16 N/A
12:35 pm 12:35 Sunny 16 -9 10 -12 79 79 S 6 9 30.68 1039 10 16 N/A
12:55 pm 12:55 Sunny 18 -8 10 -12 73 73 S 8 13 30.65 1038 10 16 N/A
1:15 pm 13:15 Sunny 18 -8 10 -12 73 73 S 8 13 30.62 1037 10 16 N/A
1:35 pm 13:35 Sunny 18 -8 10 -12 73 73 S 8 13 30.62 1037 10 16 N/A
1:55 pm 13:55 Sunny 18 -8 10 -12 73 73 S 8 13 30.59 1036 10 16 N/A
2:15 pm 14:15 Partly Cloudy 18 -8 12 -11 79 79 S 10 17 30.59 1036 10 16 N/A
2:35 pm 14:35 Partly Cloudy 18 -8 12 -11 79 79 S 8 13 30.59 1036 10 16 N/A
2:55 pm 14:55 Partly Cloudy 18 -8 12 -11 79 79 SSW 8 13 30.59 1036 10 16 N/A
3:16 pm 15:16 Partly Cloudy 18 -8 12 -11 79 79 SSE 10 17 30.59 1036 10 16 N/A
3:35 pm 15:35 Sunny 18 -8 12 -11 79 79 SSE 10 17 30.56 1035 10 16 N/A
3:55 pm 15:55 Sunny 18 -8 12 -11 79 79 SSE 8 13 30.56 1035 10 16 N/A
4:15 pm 16:15 Sunny 18 -8 12 -11 79 79 S 9 15 30.56 1035 10 16 N/A
4:35 pm 16:35 Sunny 18 -8 12 -11 79 79 SSE 9 15 30.56 1035 10 16 N/A
4:55 pm 16:55 Sunny 18 -8 12 -11 79 79 SSE 12 19 30.56 1035 10 16 N/A
5:15 pm 17:15 Sunny 16 -9 10 -12 79 79 S 9 15 30.59 1036 10 16 N/A
5:35 pm 17:35 Sunny 16 -9 10 -12 79 79 S 9 15 30.59 1036 10 16 N/A
5:55 pm 17:55 Clear 16 -9 10 -12 79 79 SSE 6 9 30.59 1036 10 16 N/A
6:15 pm 18:15 Clear 16 -9 10 -12 79 79 SSE 5 7 30.53 1034 10 16 N/A
6:35 pm 18:35 Clear 16 -9 12 -11 86 86 SSE 6 9 30.53 1034 10 16 N/A
6:55 pm 18:55 Clear 16 -9 12 -11 86 86 SE 7 11 30.53 1034 10 16 N/A
7:15 pm 19:15 Mostly Cloudy 16 -9 12 -11 86 86 SSE 7 11 30.53 1034 10 16 N/A
7:35 pm 19:35 Cloudy 18 -8 12 -11 79 79 SSE 7 11 30.50 1033 10 16 N/A
7:55 pm 19:55 Cloudy 18 -8 12 -11 79 79 SSE 8 13 30.50 1033 10 16 N/A
8:15 pm 20:15 Cloudy 18 -8 14 -10 86 86 SSE 8 13 30.50 1033 10 16 N/A
8:35 pm 20:35 Cloudy 18 -8 14 -10 86 86 SSE 9 15 30.50 1033 10 16 N/A
8:55 pm 20:55 Cloudy 18 -8 14 -10 86 86 SSE 9 15 30.50 1033 10 16 N/A
9:15 pm 21:15 Cloudy 18 -8 14 -10 86 86 SSE 9 15 30.48 1032 10 16 N/A
9:35 pm 21:35 Cloudy 18 -8 14 -10 86 86 SSE 9 15 30.48 1032 10 16 N/A
9:55 pm 21:55 Cloudy 18 -8 14 -10 86 86 SSE 10 17 30.48 1032 7 11 N/A
10:15 pm 22:15 Cloudy 18 -8 16 -9 93 93 SSE 7 11 30.48 1032 3 5 N/A
10:35 pm 22:35 Cloudy 18 -8 16 -9 93 93 S 10 17 30.48 1032 5 8 N/A
10:55 pm 22:55 Cloudy 18 -8 16 -9 93 93 S 12 19 30.48 1032 3 5 N/A
11:15 pm 23:15 Cloudy 16 -9 16 -9 100 100 S 10 17 30.45 1031 3 4 N/A
11:35 pm 23:35 Cloudy 16 -9 16 -9 100 100 S 10 17 30.45 1031 3 5 N/A
11:55 pm 23:55 Cloudy 16 -9 16 -9 100 100 SSE 9 15 30.45 1031 2 3 N/A

Powered by AerisWeather